Data No, UTC Date,UTC Time,Latitude,Longitude,Course(deg),Temp(degC),Sal(psu)
544,2020/8/17,9:03,42-36.78N,141-36.95E,209,21.192,31.6675
545,2020/8/17,9:04,42-36.49N,141-36.83E,189,21.249,31.7576
546,2020/8/17,9:05,42-36.16N,141-36.83E,179,21.519,31.868
547,2020/8/17,9:06,42-35.84N,141-36.85E,177,21.187,31.901
548,2020/8/17,9:07,42-35.53N,141-36.87E,177,21.153,31.9428
549,2020/8/17,9:08,42-35.20N,141-36.89E,178,21.052,31.9606
550,2020/8/17,9:09,42-34.86N,141-36.89E,179,21.073,31.9804
551,2020/8/17,9:10,42-34.53N,141-36.89E,180,20.987,31.9928
552,2020/8/17,9:11,42-34.19N,141-36.87E,181,20.701,32.0049
553,2020/8/17,9:12,42-33.85N,141-36.86E,181,20.686,32.0093
554,2020/8/17,9:13,42-33.50N,141-36.84E,181,20.838,32.0354
555,2020/8/17,9:14,42-33.15N,141-36.83E,181,20.784,32.0612
556,2020/8/17,9:15,42-32.80N,141-36.80E,183,20.847,32.0865
557,2020/8/17,9:16,42-32.45N,141-36.77E,184,20.411,32.0629
558,2020/8/17,9:17,42-32.09N,141-36.73E,184,20.495,32.0292
559,2020/8/17,9:18,42-31.73N,141-36.68E,185,20.319,32.0579
560,2020/8/17,9:19,42-31.41N,141-36.64E,185,20.891,32.0646
561,2020/8/17,9:20,42-31.06N,141-36.60E,185,20.844,32.0758
562,2020/8/17,9:21,42-30.69N,141-36.56E,185,20.557,32.0427
563,2020/8/17,9:22,42-30.31N,141-36.51E,185,20.357,32.0397
564,2020/8/17,9:23,42-29.94N,141-36.47E,185,20.302,32.1564
565,2020/8/17,9:24,42-29.56N,141-36.42E,185,20.215,32.2688
566,2020/8/17,9:25,42-29.19N,141-36.37E,185,20.166,32.315
567,2020/8/17,9:26,42-28.81N,141-36.32E,185,20.245,32.3645
568,2020/8/17,9:27,42-28.42N,141-36.27E,185,20.396,32.4005
569,2020/8/17,9:28,42-28.04N,141-36.23E,185,20.4,32.4064
570,2020/8/17,9:29,42-27.64N,141-36.17E,185,20.334,32.4127
571,2020/8/17,9:30,42-27.26N,141-36.12E,185,20.048,32.4198
572,2020/8/17,9:31,42-26.87N,141-36.07E,185,20.099,32.5569
573,2020/8/17,9:32,42-26.47N,141-36.02E,185,20.12,32.6969
574,2020/8/17,9:33,42-26.09N,141-35.97E,185,20.079,32.7724
575,2020/8/17,9:34,42-25.69N,141-35.92E,185,20.028,32.8251
576,2020/8/17,9:35,42-25.30N,141-35.87E,185,19.913,32.8467
577,2020/8/17,9:36,42-24.91N,141-35.82E,185,19.805,32.8521
578,2020/8/17,9:37,42-24.52N,141-35.75E,188,19.856,32.8075
579,2020/8/17,9:38,42-24.14N,141-35.66E,190,19.878,32.765
580,2020/8/17,9:39,42-23.75N,141-35.55E,191,20.277,32.7096
581,2020/8/17,9:40,42-23.37N,141-35.45E,191,20.094,32.6607
582,2020/8/17,9:41,42-22.99N,141-35.34E,191,20.086,32.6401
583,2020/8/17,9:42,42-22.60N,141-35.23E,192,19.691,32.6573
584,2020/8/17,9:43,42-22.22N,141-35.11E,192,19.649,32.6714
585,2020/8/17,9:44,42-21.82N,141-35.00E,192,19.637,32.6739
586,2020/8/17,9:45,42-21.44N,141-34.89E,191,19.792,32.6743
587,2020/8/17,9:46,42-21.05N,141-34.78E,191,20.089,32.6707
588,2020/8/17,9:47,42-20.65N,141-34.67E,191,20.113,32.6578
589,2020/8/17,9:48,42-20.27N,141-34.56E,192,20.132,32.6465
590,2020/8/17,9:49,42-19.87N,141-34.45E,192,20.208,32.6361
591,2020/8/17,9:50,42-19.49N,141-34.33E,192,20.511,32.6191
592,2020/8/17,9:51,42-19.10N,141-34.22E,192,19.999,32.6148
593,2020/8/17,9:52,42-18.70N,141-34.10E,192,19.562,32.5957
594,2020/8/17,9:53,42-18.32N,141-33.98E,192,19.596,32.6161
595,2020/8/17,9:54,42-17.92N,141-33.86E,192,19.729,32.6167
596,2020/8/17,9:55,42-17.54N,141-33.75E,191,19.649,32.6054
597,2020/8/17,9:56,42-17.15N,141-33.65E,189,19.583,32.6075
598,2020/8/17,9:57,42-16.74N,141-33.60E,184,19.515,32.618
599,2020/8/17,9:58,42-16.36N,141-33.58E,181,19.514,32.6014
600,2020/8/17,9:59,42-15.95N,141-33.57E,180,19.721,32.5837
601,2020/8/17,10:00,42-15.56N,141-33.57E,180,19.925,32.5857
602,2020/8/17,10:01,42-15.16N,141-33.56E,180,20.065,32.5861
603,2020/8/17,10:02,42-14.76N,141-33.56E,180,20.142,32.598
604,2020/8/17,10:03,42-14.37N,141-33.56E,180,20.057,32.6135
605,2020/8/17,10:04,42-13.91N,141-33.55E,180,20.085,32.6175
606,2020/8/17,10:05,42-13.57N,141-33.55E,180,19.974,32.6351
607,2020/8/17,10:06,42-13.17N,141-33.55E,180,20.026,32.6235
608,2020/8/17,10:07,42-12.72N,141-33.54E,180,20.157,32.6256
609,2020/8/17,10:08,42-12.32N,141-33.53E,180,20.115,32.6287
610,2020/8/17,10:09,42-11.92N,141-33.52E,180,20.148,32.6373
611,2020/8/17,10:10,42-11.57N,141-33.52E,180,20.219,32.629
612,2020/8/17,10:11,42-11.17N,141-33.52E,181,20.233,32.6271
613,2020/8/17,10:12,42-10.76N,141-33.51E,180,20.249,32.639
614,2020/8/17,10:13,42-10.37N,141-33.50E,180,20.271,32.6614
615,2020/8/17,10:14,42-09.96N,141-33.49E,180,20.411,32.6789
616,2020/8/17,10:15,42-09.57N,141-33.49E,180,20.493,32.6997
617,2020/8/17,10:16,42-09.17N,141-33.48E,180,20.41,32.734
618,2020/8/17,10:17,42-08.77N,141-33.47E,180,20.409,32.7449
619,2020/8/17,10:18,42-08.37N,141-33.46E,180,20.136,32.7621
620,2020/8/17,10:19,42-07.96N,141-33.46E,180,20.169,32.7414
621,2020/8/17,10:20,42-07.57N,141-33.45E,180,20.063,32.7126
622,2020/8/17,10:21,42-07.17N,141-33.45E,180,20.251,32.683
623,2020/8/17,10:22,42-06.76N,141-33.44E,180,20.152,32.6783
624,2020/8/17,10:23,42-06.36N,141-33.44E,181,20.124,32.6804
625,2020/8/17,10:24,42-05.95N,141-33.43E,181,20.15,32.6825
626,2020/8/17,10:25,42-05.56N,141-33.42E,180,20.07,32.6908
627,2020/8/17,10:26,42-05.16N,141-33.42E,180,20.052,32.6884
628,2020/8/17,10:27,42-04.76N,141-33.41E,180,20.129,32.7122
629,2020/8/17,10:28,42-04.37N,141-33.41E,180,20.131,32.7459
630,2020/8/17,10:29,42-03.97N,141-33.42E,179,20.381,32.8086
631,2020/8/17,10:30,42-03.58N,141-33.43E,178,20.255,32.8753
632,2020/8/17,10:31,42-03.18N,141-33.44E,178,20.526,32.9048
633,2020/8/17,10:32,42-02.78N,141-33.46E,178,20.5,32.9076
634,2020/8/17,10:33,42-02.39N,141-33.48E,178,20.453,32.8904
635,2020/8/17,10:34,42-01.99N,141-33.50E,177,20.303,32.8595
636,2020/8/17,10:35,42-01.60N,141-33.52E,177,19.874,32.821
637,2020/8/17,10:36,42-01.20N,141-33.54E,177,20.168,32.7732
638,2020/8/17,10:37,42-00.79N,141-33.56E,177,20.277,32.7485
639,2020/8/17,10:38,42-00.39N,141-33.58E,178,20.348,32.6822
640,2020/8/17,10:39,41-59.98N,141-33.61E,177,20.614,32.6054
641,2020/8/17,10:40,41-59.58N,141-33.63E,177,21.058,32.534
642,2020/8/17,10:41,41-59.18N,141-33.65E,178,20.889,32.461
643,2020/8/17,10:42,41-58.77N,141-33.67E,177,20.915,32.394
644,2020/8/17,10:43,41-58.34N,141-33.68E,177,20.636,32.3542
645,2020/8/17,10:44,41-57.93N,141-33.70E,178,20.858,32.329
646,2020/8/17,10:45,41-57.53N,141-33.72E,177,21.035,32.3175
647,2020/8/17,10:46,41-57.13N,141-33.75E,177,21.024,32.3155
648,2020/8/17,10:47,41-56.72N,141-33.77E,177,20.695,32.3461
649,2020/8/17,10:48,41-56.33N,141-33.80E,177,20.924,32.3673
650,2020/8/17,10:49,41-55.93N,141-33.82E,177,20.908,32.3477
651,2020/8/17,10:50,41-55.54N,141-33.85E,177,21.045,32.311
652,2020/8/17,10:51,41-55.14N,141-33.88E,177,21.196,32.2718
653,2020/8/17,10:52,41-54.74N,141-33.90E,177,21.227,32.2293
654,2020/8/17,10:53,41-54.36N,141-33.93E,177,21.128,32.1925
655,2020/8/17,10:54,41-53.96N,141-33.95E,177,21.088,32.168
656,2020/8/17,10:55,41-53.57N,141-33.98E,176,20.917,32.1219
657,2020/8/17,10:56,41-53.17N,141-34.01E,176,21.086,32.0994
658,2020/8/17,10:57,41-52.76N,141-34.04E,176,20.804,32.0916
659,2020/8/17,10:58,41-52.37N,141-34.07E,177,20.753,32.0867
660,2020/8/17,10:59,41-51.98N,141-34.10E,176,21.113,32.087
661,2020/8/17,11:00,41-51.57N,141-34.13E,176,21.234,32.0896
662,2020/8/17,11:01,41-51.19N,141-34.15E,176,21.452,32.0917
663,2020/8/17,11:02,41-50.79N,141-34.18E,177,21.386,32.1071
664,2020/8/17,11:03,41-50.40N,141-34.22E,176,21.071,32.0659
665,2020/8/17,11:04,41-50.00N,141-34.25E,177,21.663,32.0211
666,2020/8/17,11:05,41-49.57N,141-34.30E,176,21.499,31.9946
667,2020/8/17,11:06,41-49.17N,141-34.34E,175,21.436,31.9288
668,2020/8/17,11:07,41-48.77N,141-34.38E,175,21.361,31.9169
669,2020/8/17,11:08,41-48.38N,141-34.42E,175,21.428,31.9428
670,2020/8/17,11:09,41-47.98N,141-34.46E,176,21.209,31.9505
671,2020/8/17,11:10,41-47.58N,141-34.49E,176,21.208,31.949
672,2020/8/17,11:11,41-47.20N,141-34.52E,176,21.28,31.9502
673,2020/8/17,11:12,41-46.80N,141-34.55E,176,21.093,31.9364
674,2020/8/17,11:13,41-46.44N,141-34.58E,176,21.145,31.9279
675,2020/8/17,11:14,41-46.06N,141-34.62E,176,21.091,31.9568
676,2020/8/17,11:15,41-45.67N,141-34.66E,175,21.151,31.9752
677,2020/8/17,11:16,41-45.28N,141-34.73E,171,21.698,31.9853
678,2020/8/17,11:17,41-44.89N,141-34.84E,167,21.677,32.2443
679,2020/8/17,11:18,41-44.52N,141-34.96E,165,21.53,32.5554
680,2020/8/17,11:19,41-44.16N,141-35.10E,164,21.528,32.822
681,2020/8/17,11:20,41-43.79N,141-35.23E,165,22.701,32.9632
682,2020/8/17,11:21,41-43.44N,141-35.35E,165,22.96,32.9927
683,2020/8/17,11:22,41-43.07N,141-35.49E,164,22.953,32.9768
684,2020/8/17,11:23,41-42.72N,141-35.62E,164,22.9,32.9645
685,2020/8/17,11:24,41-42.37N,141-35.75E,164,22.407,32.977
686,2020/8/17,11:25,41-42.01N,141-35.89E,163,22.737,32.9918
687,2020/8/17,11:26,41-41.66N,141-36.03E,163,22.731,33.008
688,2020/8/17,11:27,41-41.29N,141-36.17E,163,22.715,33.0068
689,2020/8/17,11:28,41-40.94N,141-36.31E,163,22.69,33.0061
690,2020/8/17,11:29,41-40.58N,141-36.44E,164,22.644,33.0102
691,2020/8/17,11:30,41-40.22N,141-36.58E,164,22.643,33.013
692,2020/8/17,11:31,41-39.87N,141-36.72E,163,22.49,33.0088
693,2020/8/17,11:32,41-39.50N,141-36.86E,163,22.283,33.0022
694,2020/8/17,11:33,41-39.14N,141-36.99E,164,22.237,32.9727
695,2020/8/17,11:34,41-38.78N,141-37.13E,164,22.278,32.9429
696,2020/8/17,11:35,41-38.42N,141-37.27E,164,22.324,32.9124
697,2020/8/17,11:36,41-38.10N,141-37.38E,165,22.161,32.8939
698,2020/8/17,11:37,41-37.73N,141-37.51E,165,22.104,32.8767
699,2020/8/17,11:38,41-37.37N,141-37.63E,165,22.119,32.8854
700,2020/8/17,11:39,41-37.01N,141-37.76E,164,22.053,32.8873
701,2020/8/17,11:40,41-36.64N,141-37.90E,165,22.106,32.887
702,2020/8/17,11:41,41-36.22N,141-38.03E,165,22.234,32.8835
703,2020/8/17,11:42,41-35.84N,141-38.16E,166,22.351,32.8882
704,2020/8/17,11:43,41-35.48N,141-38.29E,165,22.419,32.8729
705,2020/8/17,11:44,41-35.15N,141-38.40E,166,22.494,32.863
706,2020/8/17,11:45,41-34.76N,141-38.52E,166,22.592,32.8554
707,2020/8/17,11:46,41-34.39N,141-38.64E,166,22.665,32.8529
708,2020/8/17,11:47,41-33.94N,141-38.78E,167,22.743,32.845
709,2020/8/17,11:48,41-33.56N,141-38.89E,167,22.805,32.8408
710,2020/8/17,11:49,41-33.18N,141-39.01E,167,22.786,32.8336
711,2020/8/17,11:50,41-32.79N,141-39.12E,168,21.973,32.8306
712,2020/8/17,11:51,41-32.42N,141-39.22E,168,21.742,32.8377
713,2020/8/17,11:52,41-32.04N,141-39.31E,169,21.77,32.9211
714,2020/8/17,11:53,41-31.72N,141-39.40E,169,21.854,32.9226
715,2020/8/17,11:54,41-31.34N,141-39.49E,169,21.92,32.9287
716,2020/8/17,11:55,41-30.96N,141-39.59E,169,21.996,32.9255
717,2020/8/17,11:56,41-30.59N,141-39.68E,170,22.054,32.9166
718,2020/8/17,11:57,41-30.22N,141-39.79E,164,22.171,32.9158
719,2020/8/17,11:58,41-29.85N,141-39.93E,164,21.993,32.9138
720,2020/8/17,11:59,41-29.48N,141-40.06E,164,21.807,32.9227
721,2020/8/17,12:00,41-29.10N,141-40.20E,165,21.798,32.9399
722,2020/8/17,12:01,41-28.74N,141-40.32E,166,21.893,32.9473
723,2020/8/17,12:02,41-28.36N,141-40.44E,167,21.832,32.9449
724,2020/8/17,12:03,41-27.93N,141-40.58E,166,21.722,32.9429
725,2020/8/17,12:04,41-27.56N,141-40.70E,166,21.773,32.9531
726,2020/8/17,12:05,41-27.18N,141-40.84E,165,21.785,32.9719
727,2020/8/17,12:06,41-26.82N,141-40.98E,164,21.978,32.9802
728,2020/8/17,12:07,41-26.45N,141-41.11E,165,21.994,32.9915
729,2020/8/17,12:08,41-26.08N,141-41.23E,165,22.122,32.9702
730,2020/8/17,12:09,41-25.72N,141-41.36E,165,22.065,32.8668
731,2020/8/17,12:10,41-25.35N,141-41.49E,166,22.165,32.7909
732,2020/8/17,12:11,41-24.99N,141-41.61E,166,22.131,32.7666
733,2020/8/17,12:12,41-24.63N,141-41.74E,166,22.015,32.7634
734,2020/8/17,12:13,41-24.26N,141-41.87E,165,22.034,32.7427
735,2020/8/17,12:14,41-23.90N,141-41.99E,166,22.084,32.7184
736,2020/8/17,12:15,41-23.52N,141-42.12E,166,22.141,32.696
737,2020/8/17,12:16,41-23.16N,141-42.23E,167,22.186,32.6783
738,2020/8/17,12:17,41-22.79N,141-42.35E,167,22.267,32.6737
739,2020/8/17,12:18,41-22.41N,141-42.46E,168,22.337,32.6657
740,2020/8/17,12:19,41-22.05N,141-42.56E,168,22.459,32.668
741,2020/8/17,12:20,41-21.67N,141-42.67E,168,22.505,32.6558
742,2020/8/17,12:21,41-21.30N,141-42.77E,169,22.335,32.6561
743,2020/8/17,12:22,41-20.93N,141-42.87E,168,22.321,32.6674
744,2020/8/17,12:23,41-20.55N,141-42.97E,169,22.344,32.6851
745,2020/8/17,12:24,41-20.18N,141-43.07E,169,22.367,32.6923
746,2020/8/17,12:25,41-19.80N,141-43.18E,169,22.446,32.707
747,2020/8/17,12:26,41-19.43N,141-43.28E,169,22.444,32.7178
748,2020/8/17,12:27,41-19.10N,141-43.36E,168,22.344,32.7127
749,2020/8/17,12:28,41-18.67N,141-43.48E,169,22.356,32.7245
750,2020/8/17,12:29,41-18.30N,141-43.58E,169,22.336,32.7305
751,2020/8/17,12:30,41-17.95N,141-43.67E,169,22.29,32.7371
752,2020/8/17,12:31,41-17.60N,141-43.76E,169,22.286,32.74
753,2020/8/17,12:32,41-17.19N,141-43.86E,169,22.29,32.7437
754,2020/8/17,12:33,41-16.85N,141-43.95E,169,22.248,32.7408
755,2020/8/17,12:34,41-16.48N,141-44.04E,169,22.259,32.7469
756,2020/8/17,12:35,41-16.10N,141-44.14E,169,22.241,32.7451
757,2020/8/17,12:36,41-15.69N,141-44.24E,169,22.258,32.7479
758,2020/8/17,12:37,41-15.36N,141-44.32E,169,22.266,32.7454
759,2020/8/17,12:38,41-14.98N,141-44.41E,169,22.287,32.743
760,2020/8/17,12:39,41-14.61N,141-44.49E,170,22.311,32.7464
761,2020/8/17,12:40,41-14.18N,141-44.59E,170,22.292,32.7445
762,2020/8/17,12:41,41-13.81N,141-44.68E,170,22.249,32.744
763,2020/8/17,12:42,41-13.48N,141-44.76E,169,22.201,32.7467
764,2020/8/17,12:43,41-13.11N,141-44.84E,170,22.164,32.7512
765,2020/8/17,12:44,41-12.74N,141-44.93E,170,22.14,32.7507
766,2020/8/17,12:45,41-12.37N,141-45.01E,171,22.084,32.7573
767,2020/8/17,12:46,41-12.00N,141-45.08E,171,22.078,32.7555
768,2020/8/17,12:47,41-11.63N,141-45.16E,171,22.075,32.7602
769,2020/8/17,12:48,41-11.20N,141-45.25E,171,22.053,32.7566
770,2020/8/17,12:49,41-10.84N,141-45.32E,171,22.021,32.7605
771,2020/8/17,12:50,41-10.46N,141-45.39E,171,22.029,32.7632
772,2020/8/17,12:51,41-10.09N,141-45.46E,171,21.963,32.7671
773,2020/8/17,12:52,41-09.72N,141-45.54E,171,21.895,32.7709
774,2020/8/17,12:53,41-09.38N,141-45.61E,170,21.831,32.7738
775,2020/8/17,12:54,41-09.04N,141-45.68E,171,21.798,32.7804
776,2020/8/17,12:55,41-08.66N,141-45.76E,171,21.749,32.799
777,2020/8/17,12:56,41-08.30N,141-45.82E,171,21.742,32.798
778,2020/8/17,12:57,41-07.94N,141-45.89E,171,21.743,32.8109
779,2020/8/17,12:58,41-07.57N,141-45.97E,171,21.759,32.8246
780,2020/8/17,12:59,41-07.21N,141-46.04E,171,21.66,32.8436
781,2020/8/17,13:00,41-06.84N,141-46.11E,172,21.645,32.8564
782,2020/8/17,13:01,41-06.48N,141-46.18E,171,21.574,32.8916
783,2020/8/17,13:02,41-06.12N,141-46.26E,171,21.535,32.9112
784,2020/8/17,13:03,41-05.75N,141-46.33E,170,21.599,32.9556
785,2020/8/17,13:04,41-05.40N,141-46.42E,170,21.909,32.9793
786,2020/8/17,13:05,41-05.03N,141-46.50E,170,21.902,32.9914
787,2020/8/17,13:06,41-04.68N,141-46.57E,170,21.892,32.9724
788,2020/8/17,13:07,41-04.32N,141-46.65E,170,21.803,32.9442
789,2020/8/17,13:08,41-03.95N,141-46.72E,171,21.834,32.9221
790,2020/8/17,13:09,41-03.59N,141-46.80E,170,21.864,32.9233
791,2020/8/17,13:10,41-03.23N,141-46.88E,170,21.803,32.9066
792,2020/8/17,13:11,41-02.87N,141-46.96E,171,21.835,32.8921
793,2020/8/17,13:12,41-02.51N,141-47.03E,170,21.883,32.8791
794,2020/8/17,13:13,41-02.10N,141-47.11E,171,21.92,32.8635
795,2020/8/17,13:14,41-01.74N,141-47.18E,171,21.977,32.852
796,2020/8/17,13:15,41-01.42N,141-47.25E,171,22.011,32.8392
797,2020/8/17,13:16,41-01.08N,141-47.32E,171,22.096,32.834
798,2020/8/17,13:17,41-00.72N,141-47.39E,171,22.043,32.8273
799,2020/8/17,13:18,41-00.35N,141-47.47E,171,22.082,32.8231
800,2020/8/17,13:19,41-00.00N,141-47.54E,171,22.143,32.8204
801,2020/8/17,13:20,40-59.63N,141-47.59E,174,22.222,32.8174
802,2020/8/17,13:21,40-59.26N,141-47.63E,176,22.306,32.8073
803,2020/8/17,13:22,40-58.90N,141-47.66E,176,22.288,32.803
804,2020/8/17,13:23,40-58.53N,141-47.69E,176,22.3,32.7923
805,2020/8/17,13:24,40-58.17N,141-47.72E,176,22.243,32.7906
806,2020/8/17,13:25,40-57.80N,141-47.75E,176,22.017,32.7882
807,2020/8/17,13:26,40-57.43N,141-47.78E,176,21.856,32.8057
808,2020/8/17,13:27,40-57.06N,141-47.81E,176,21.639,32.8385
809,2020/8/17,13:28,40-56.63N,141-47.85E,176,21.571,32.8791
810,2020/8/17,13:29,40-56.26N,141-47.88E,175,21.458,32.9207
811,2020/8/17,13:30,40-55.88N,141-47.91E,175,21.397,32.9451
812,2020/8/17,13:31,40-55.58N,141-47.93E,176,21.347,32.9611
813,2020/8/17,13:32,40-55.20N,141-47.96E,176,21.353,32.9719
814,2020/8/17,13:33,40-54.82N,141-47.99E,176,21.348,32.9951
815,2020/8/17,13:34,40-54.45N,141-48.03E,176,21.322,33.0046
816,2020/8/17,13:35,40-54.08N,141-48.06E,176,21.232,33.0209
817,2020/8/17,13:36,40-53.71N,141-48.09E,176,21.186,33.027
818,2020/8/17,13:37,40-53.33N,141-48.12E,176,21.122,33.0338
819,2020/8/17,13:38,40-52.95N,141-48.16E,176,20.843,33.0318
820,2020/8/17,13:39,40-52.57N,141-48.19E,176,20.483,33.0131
821,2020/8/17,13:40,40-52.18N,141-48.22E,175,20.413,32.9405
822,2020/8/17,13:41,40-51.81N,141-48.26E,175,20.424,32.8502
823,2020/8/17,13:42,40-51.43N,141-48.30E,175,20.518,32.7818
824,2020/8/17,13:43,40-51.04N,141-48.33E,175,20.593,32.7574
825,2020/8/17,13:44,40-50.66N,141-48.36E,177,20.595,32.7366
826,2020/8/17,13:45,40-50.27N,141-48.38E,178,20.765,32.7078
827,2020/8/17,13:46,40-49.89N,141-48.39E,178,20.634,32.6683
828,2020/8/17,13:47,40-49.50N,141-48.40E,178,20.685,32.6691
829,2020/8/17,13:48,40-49.11N,141-48.41E,178,20.705,32.6476
830,2020/8/17,13:49,40-48.67N,141-48.43E,177,20.653,32.6356
831,2020/8/17,13:50,40-48.28N,141-48.45E,176,20.601,32.6209
832,2020/8/17,13:51,40-47.90N,141-48.50E,174,20.549,32.6264
833,2020/8/17,13:52,40-47.52N,141-48.57E,171,20.597,32.6168
834,2020/8/17,13:53,40-47.18N,141-48.65E,170,20.651,32.622
835,2020/8/17,13:54,40-46.80N,141-48.75E,166,20.645,32.644
836,2020/8/17,13:55,40-46.41N,141-48.89E,165,20.655,32.6772
837,2020/8/17,13:56,40-46.04N,141-49.02E,164,20.698,32.6976
838,2020/8/17,13:57,40-45.66N,141-49.15E,166,20.726,32.6905
839,2020/8/17,13:58,40-45.27N,141-49.27E,167,20.637,32.692
840,2020/8/17,13:59,40-44.88N,141-49.39E,168,20.558,32.6947
841,2020/8/17,14:00,40-44.49N,141-49.49E,168,20.483,32.6996
842,2020/8/17,14:01,40-44.11N,141-49.59E,168,20.378,32.6868
843,2020/8/17,14:02,40-43.72N,141-49.70E,168,20.205,32.6559
844,2020/8/17,14:03,40-43.32N,141-49.80E,168,20.105,32.6335
845,2020/8/17,14:04,40-42.94N,141-49.91E,168,19.619,32.6158
846,2020/8/17,14:05,40-42.55N,141-50.01E,168,19.767,32.5848
847,2020/8/17,14:06,40-42.16N,141-50.13E,167,19.536,32.5292
848,2020/8/17,14:07,40-41.77N,141-50.24E,167,19.453,32.5203
849,2020/8/17,14:08,40-41.37N,141-50.34E,168,19.427,32.5066
850,2020/8/17,14:09,40-40.99N,141-50.45E,167,19.537,32.5041
851,2020/8/17,14:10,40-40.60N,141-50.56E,167,19.493,32.5229
852,2020/8/17,14:11,40-40.20N,141-50.67E,167,19.501,32.4882
853,2020/8/17,14:12,40-39.81N,141-50.79E,167,20.19,32.4622
854,2020/8/17,14:13,40-39.41N,141-50.90E,167,20.581,32.5009
855,2020/8/17,14:14,40-39.02N,141-51.02E,167,20.987,32.5955
856,2020/8/17,14:15,40-38.62N,141-51.13E,167,21.172,32.672
857,2020/8/17,14:16,40-38.22N,141-51.25E,167,21.282,32.7376
858,2020/8/17,14:17,40-37.83N,141-51.37E,167,21.357,32.7572
859,2020/8/17,14:18,40-37.42N,141-51.49E,167,21.462,32.7437
860,2020/8/17,14:19,40-37.03N,141-51.61E,167,21.33,32.7258
861,2020/8/17,14:20,40-36.63N,141-51.72E,167,21.261,32.7239
862,2020/8/17,14:21,40-36.23N,141-51.83E,167,21.469,32.7352
863,2020/8/17,14:22,40-35.83N,141-51.94E,167,21.611,32.7353
864,2020/8/17,14:23,40-35.43N,141-52.06E,168,21.538,32.7267
865,2020/8/17,14:24,40-35.04N,141-52.16E,168,21.482,32.7194
866,2020/8/17,14:25,40-34.59N,141-52.29E,167,21.494,32.7347
867,2020/8/17,14:26,40-34.19N,141-52.41E,167,21.514,32.7447
868,2020/8/17,14:27,40-33.79N,141-52.52E,167,21.536,32.7466
869,2020/8/17,14:28,40-33.43N,141-52.63E,167,21.56,32.7536
870,2020/8/17,14:29,40-33.05N,141-52.73E,167,21.508,32.7379
871,2020/8/17,14:30,40-32.60N,141-52.87E,167,21.432,32.7321
872,2020/8/17,14:31,40-32.20N,141-52.98E,167,21.398,32.7322
873,2020/8/17,14:32,40-31.79N,141-53.11E,167,21.309,32.7387
874,2020/8/17,14:33,40-31.41N,141-53.22E,167,21.179,32.7334
875,2020/8/17,14:34,40-31.01N,141-53.33E,167,21.16,32.7331
876,2020/8/17,14:35,40-30.61N,141-53.44E,167,21.047,32.7284
877,2020/8/17,14:36,40-30.27N,141-53.55E,167,21.135,32.7416
878,2020/8/17,14:37,40-29.85N,141-53.67E,167,21.312,32.7571
879,2020/8/17,14:38,40-29.42N,141-53.78E,168,21.15,32.8029
880,2020/8/17,14:39,40-29.03N,141-53.89E,167,21.068,32.8497
881,2020/8/17,14:40,40-28.62N,141-54.00E,168,21.122,32.9029
882,2020/8/17,14:41,40-28.21N,141-54.11E,167,21.079,32.9168
883,2020/8/17,14:42,40-27.80N,141-54.23E,167,21.103,32.9277
884,2020/8/17,14:43,40-27.39N,141-54.34E,168,21.074,32.939
885,2020/8/17,14:44,40-26.98N,141-54.45E,167,21.072,32.9487
886,2020/8/17,14:45,40-26.57N,141-54.57E,167,20.94,32.9457
887,2020/8/17,14:46,40-26.15N,141-54.69E,168,21.028,32.9517
888,2020/8/17,14:47,40-25.74N,141-54.80E,167,21.017,32.954
889,2020/8/17,14:48,40-25.32N,141-54.92E,168,20.931,32.9535
890,2020/8/17,14:49,40-24.90N,141-55.03E,168,20.857,32.9522
891,2020/8/17,14:50,40-24.48N,141-55.14E,169,20.958,32.9599
892,2020/8/17,14:51,40-24.06N,141-55.24E,169,20.999,32.961
893,2020/8/17,14:52,40-23.64N,141-55.34E,169,20.969,32.973
894,2020/8/17,14:53,40-23.27N,141-55.42E,169,20.993,32.9944
895,2020/8/17,14:54,40-22.86N,141-55.52E,169,21.05,33.0159
896,2020/8/17,14:55,40-22.44N,141-55.62E,169,21.132,33.0107
897,2020/8/17,14:56,40-22.02N,141-55.72E,169,21.12,32.9887
898,2020/8/17,14:57,40-21.60N,141-55.81E,170,20.996,32.9799
899,2020/8/17,14:58,40-21.18N,141-55.91E,170,20.988,32.982
900,2020/8/17,14:59,40-20.77N,141-56.00E,170,21.117,32.9853
901,2020/8/17,15:00,40-20.36N,141-56.11E,168,21.567,32.9722
902,2020/8/17,15:01,40-19.94N,141-56.22E,168,21.71,32.9739
903,2020/8/17,15:02,40-19.53N,141-56.31E,169,21.595,32.9587
904,2020/8/17,15:03,40-19.12N,141-56.41E,169,21.437,32.9665
905,2020/8/17,15:04,40-18.71N,141-56.51E,169,21.345,32.9685
906,2020/8/17,15:05,40-18.30N,141-56.62E,168,21.177,32.9796
907,2020/8/17,15:06,40-17.88N,141-56.72E,169,20.998,32.9857
908,2020/8/17,15:07,40-17.48N,141-56.83E,168,20.929,33.0047
909,2020/8/17,15:08,40-17.01N,141-56.95E,168,20.963,33.007
910,2020/8/17,15:09,40-16.59N,141-57.06E,168,21.001,33.0257
911,2020/8/17,15:10,40-16.23N,141-57.16E,168,21.029,33.0305
912,2020/8/17,15:11,40-15.81N,141-57.27E,168,21.047,33.0281
913,2020/8/17,15:12,40-15.40N,141-57.37E,168,21.059,33.0255
914,2020/8/17,15:13,40-14.99N,141-57.48E,169,21.082,33.0206
915,2020/8/17,15:14,40-14.58N,141-57.58E,169,21.107,33.0236
916,2020/8/17,15:15,40-14.16N,141-57.69E,168,21.101,33.0222
917,2020/8/17,15:16,40-13.75N,141-57.81E,167,21.118,33.0221
918,2020/8/17,15:17,40-13.34N,141-57.93E,166,21.195,33.0173
919,2020/8/17,15:18,40-12.94N,141-58.06E,166,21.772,33.0119
920,2020/8/17,15:19,40-12.53N,141-58.18E,167,21.837,32.9938
921,2020/8/17,15:20,40-12.07N,141-58.32E,167,21.795,32.9136
922,2020/8/17,15:21,40-11.66N,141-58.44E,166,21.724,32.8727
923,2020/8/17,15:22,40-11.27N,141-58.56E,166,21.876,32.8939
924,2020/8/17,15:23,40-10.87N,141-58.68E,166,21.888,32.8843
925,2020/8/17,15:24,40-10.52N,141-58.79E,166,22.057,32.8651
926,2020/8/17,15:25,40-10.13N,141-58.91E,166,22.193,32.886
927,2020/8/17,15:26,40-09.73N,141-59.03E,167,22.317,32.9064
928,2020/8/17,15:27,40-09.29N,141-59.16E,166,22.366,32.8927
929,2020/8/17,15:28,40-08.89N,141-59.28E,166,22.352,32.8519
930,2020/8/17,15:29,40-08.49N,141-59.41E,166,22.227,32.8379
931,2020/8/17,15:30,40-08.10N,141-59.52E,166,22.071,32.85
932,2020/8/17,15:31,40-07.70N,141-59.64E,166,21.97,32.8834
933,2020/8/17,15:32,40-07.32N,141-59.76E,166,22.048,32.9191
934,2020/8/17,15:33,40-06.92N,141-59.88E,166,22.205,32.9286
935,2020/8/17,15:34,40-06.52N,142-00.00E,167,22.254,32.9199
936,2020/8/17,15:35,40-06.13N,142-00.12E,167,22.247,32.895
937,2020/8/17,15:36,40-05.73N,142-00.24E,167,22.254,32.8801